,,,PA_Meas_PMT16A,,PR_Meas_QMR101_102,,RH_Meas_QMH101,,SR_Meas_QMS101,,TA_Meas_QMH101,,GenWind,,GenWind,
date,time,status,PA,status,PR,status,RH,status,SR,status,TA,status,DirAvg,status,SpdAvg,
2008-05-24, 00:00:04,VALID,1004.07,VALID,0,VALID,96.2536,VALID,0,VALID,24.0752,VALID,40,VALID,0.639453,
2008-05-24, 00:01:04,VALID,1004.03,VALID,0,VALID,96.2917,VALID,0,VALID,24.1142,VALID,88,VALID,0.720703,
2008-05-24, 00:02:04,VALID,1004.02,VALID,0,VALID,96.3146,VALID,0,VALID,24.1336,VALID,88,VALID,0.377344,
2008-05-24, 00:03:04,VALID,1003.97,VALID,0,VALID,96.307,VALID,0,VALID,24.1336,VALID,64,VALID,0.169922,
2008-05-24, 00:04:04,VALID,1003.95,VALID,0,VALID,96.2841,VALID,0,VALID,24.1142,VALID,69,VALID,0.384766,
2008-05-24, 00:05:04,VALID,1003.92,VALID,0,VALID,96.2688,VALID,0,VALID,24.1336,VALID,69,VALID,0.741406,
2008-05-24, 00:06:04,VALID,1003.93,VALID,0,VALID,96.307,VALID,0,VALID,24.1726,VALID,81,VALID,0.408203,
2008-05-24, 00:07:04,VALID,1003.92,VALID,0,VALID,96.2612,VALID,0,VALID,24.1531,VALID,102,VALID,0.619531,
2008-05-24, 00:08:04,VALID,1003.94,VALID,0,VALID,96.2231,VALID,0,VALID,24.1531,VALID,99,VALID,0.349219,
2008-05-24, 00:09:04,VALID,1003.92,VALID,0,VALID,96.2307,VALID,0,VALID,24.1531,VALID,94,VALID,0.410547,
2008-05-24, 00:10:04,VALID,1003.91,VALID,0,VALID,96.2994,VALID,0,VALID,24.1726,VALID,93,VALID,0.422656,
2008-05-24, 00:11:04,VALID,1003.92,VALID,0,VALID,96.2536,VALID,0,VALID,24.192,VALID,83,VALID,0.278516,
2008-05-24, 00:12:04,VALID,1003.89,VALID,0,VALID,96.1697,VALID,0,VALID,24.1531,VALID,81,VALID,0.214062,
2008-05-24, 00:13:04,VALID,1003.9,VALID,0,VALID,96.1468,VALID,0,VALID,24.1142,VALID,81,VALID,0.00351562,
2008-05-24, 00:14:04,VALID,1003.88,VALID,0,VALID,96.162,VALID,0,VALID,24.1142,VALID,81,VALID,0.329688,
2008-05-24, 00:15:04,VALID,1003.88,VALID,0,VALID,96.1392,VALID,0,VALID,24.0557,VALID,63,VALID,0.678906,
2008-05-24, 00:16:04,VALID,1003.88,VALID,0,VALID,96.162,VALID,0,VALID,24.0557,VALID,65,VALID,0.267578,
2008-05-24, 00:17:04,VALID,1003.84,VALID,0,VALID,96.1544,VALID,0,VALID,23.9955,VALID,65,VALID,0,
2008-05-24, 00:18:04,VALID,1003.85,VALID,0,VALID,96.1697,VALID,0,VALID,23.9973,VALID,65,VALID,0.160938,
2008-05-24, 00:19:04,VALID,1003.85,VALID,0,VALID,96.1315,VALID,0,VALID,23.9797,VALID,65,VALID,0.270703,
2008-05-24, 00:20:04,VALID,1003.89,VALID,0,VALID,96.1773,VALID,0,VALID,23.9389,VALID,65,VALID,0.0863281,
2008-05-24, 00:21:04,VALID,1003.86,VALID,0,VALID,96.1849,VALID,0,VALID,23.9195,VALID,65,VALID,0.0792969,
2008-05-24, 00:22:04,VALID,1003.88,VALID,0,VALID,96.1849,VALID,0,VALID,23.9018,VALID,65,VALID,0.267578,
2008-05-24, 00:23:04,VALID,1003.86,VALID,0,VALID,96.246,VALID,0,VALID,23.8611,VALID,67,VALID,0.283984,
2008-05-24, 00:24:04,VALID,1003.84,VALID,0,VALID,96.246,VALID,0,VALID,23.8805,VALID,67,VALID,0.405078,
2008-05-24, 00:25:04,VALID,1003.83,VALID,0,VALID,96.3528,VALID,0,VALID,23.9389,VALID,116,VALID,0.6,
2008-05-24, 00:26:04,VALID,1003.82,VALID,0,VALID,96.3604,VALID,0,VALID,23.9584,VALID,106,VALID,0.407813,
2008-05-24, 00:27:04,VALID,1003.83,VALID,0,VALID,96.4138,VALID,0,VALID,24.0168,VALID,105,VALID,0.253125,
2008-05-24, 00:28:04,VALID,1003.81,VALID,0,VALID,96.429,VALID,0,VALID,24.0965,VALID,98,VALID,0.571094,
2008-05-24, 00:29:04,VALID,1003.79,VALID,0,VALID,96.4062,VALID,0,VALID,24.0947,VALID,116,VALID,0.711719,
2008-05-24, 00:30:04,VALID,1003.75,VALID,0,VALID,96.3528,VALID,0,VALID,24.0947,VALID,95,VALID,0.226953,
2008-05-24, 00:31:04,VALID,1003.73,VALID,0,VALID,96.2841,VALID,0,VALID,24.0557,VALID,75,VALID,0.458984,
2008-05-24, 00:32:04,VALID,1003.69,VALID,0,VALID,96.246,VALID,0,VALID,24.0557,VALID,75,VALID,0.521875,
2008-05-24, 00:33:04,VALID,1003.66,VALID,0,VALID,96.2841,VALID,0,VALID,24.0947,VALID,93,VALID,0.453125,
2008-05-24, 00:34:04,VALID,1003.62,VALID,0,VALID,96.2917,VALID,0,VALID,24.1142,VALID,75,VALID,0.311719,
2008-05-24, 00:35:04,VALID,1003.6,VALID,0,VALID,96.3146,VALID,0,VALID,24.1336,VALID,79,VALID,0.546484,
2008-05-24, 00:36:04,VALID,1003.54,VALID,0,VALID,96.2841,VALID,0,VALID,24.1549,VALID,108,VALID,0.459766,
2008-05-24, 00:37:04,VALID,1003.55,VALID,0,VALID,96.1849,VALID,0,VALID,24.1142,VALID,92,VALID,0.346484,
2008-05-24, 00:38:04,VALID,1003.54,VALID,0,VALID,96.1697,VALID,0,VALID,24.1142,VALID,89,VALID,0.210547,
2008-05-24, 00:39:04,VALID,1003.53,VALID,0,VALID,96.2078,VALID,0,VALID,24.1142,VALID,81,VALID,0.289063,
2008-05-24, 00:40:04,VALID,1003.53,VALID,0,VALID,96.2078,VALID,0,VALID,24.1531,VALID,81,VALID,0.249609,
2008-05-24, 00:41:04,VALID,1003.51,VALID,0,VALID,96.0552,VALID,0,VALID,24.0557,VALID,65,VALID,0.440625,
2008-05-24, 00:42:04,VALID,1003.5,VALID,0,VALID,95.9484,VALID,0,VALID,23.9779,VALID,41,VALID,0.301953,
2008-05-24, 00:43:04,VALID,1003.52,VALID,0,VALID,96.0171,VALID,0,VALID,23.9584,VALID,41,VALID,0.471094,
2008-05-24, 00:44:04,VALID,1003.49,VALID,0,VALID,96.04,VALID,0,VALID,23.9,VALID,18,VALID,0.517578,
2008-05-24, 00:45:04,VALID,1003.49,VALID,0,VALID,96.0247,VALID,0,VALID,23.8805,VALID,358,VALID,0.704687,
2008-05-24, 00:46:04,VALID,1003.47,VALID,0,VALID,95.9866,VALID,0,VALID,23.8239,VALID,352,VALID,0.724219,
2008-05-24, 00:47:04,VALID,1003.5,VALID,0,VALID,95.9713,VALID,0,VALID,23.7637,VALID,345,VALID,0.697266,
2008-05-24, 00:48:04,VALID,1003.5,VALID,0,VALID,96.0247,VALID,0,VALID,23.7053,VALID,348,VALID,0.952344,
2008-05-24, 00:49:04,VALID,1003.46,VALID,0,VALID,95.9942,VALID,0,VALID,23.6469,VALID,348,VALID,0.767578,
2008-05-24, 00:50:04,VALID,1003.46,VALID,0,VALID,96.1163,VALID,0,VALID,23.5885,VALID,348,VALID,0.775,
2008-05-24, 00:51:04,VALID,1003.44,VALID,0,VALID,96.1468,VALID,0,VALID,23.5885,VALID,348,VALID,0.427734,
2008-05-24, 00:52:04,VALID,1003.43,VALID,0,VALID,96.2994,VALID,0,VALID,23.5691,VALID,348,VALID,0.590234,
2008-05-24, 00:53:04,VALID,1003.45,VALID,0,VALID,96.3985,VALID,0,VALID,23.6275,VALID,348,VALID,0.392969,
2008-05-24, 00:54:04,VALID,1003.46,VALID,0,VALID,96.3756,VALID,0,VALID,23.6275,VALID,348,VALID,0.366016,
2008-05-24, 00:55:04,VALID,1003.45,VALID,0,VALID,96.3909,VALID,0,VALID,23.6062,VALID,348,VALID,0.525781,
2008-05-24, 00:56:04,VALID,1003.47,VALID,0,VALID,96.4367,VALID,0,VALID,23.6275,VALID,348,VALID,0.305078,
2008-05-24, 00:57:04,VALID,1003.45,VALID,0,VALID,96.3299,VALID,0,VALID,23.608,VALID,4,VALID,0.498437,
2008-05-24, 00:58:04,VALID,1003.45,VALID,0,VALID,96.3756,VALID,0,VALID,23.608,VALID,11,VALID,0.452344,
2008-05-24, 00:59:04,VALID,1003.44,VALID,0,VALID,96.307,VALID,0,VALID,23.5903,VALID,11,VALID,0.534766,
2008-05-24, 01:00:04,VALID,1003.43,VALID,0,VALID,96.1849,VALID,0,VALID,23.4912,VALID,11,VALID,0.592969,
2008-05-24, 01:01:04,VALID,1003.43,VALID,0,VALID,96.2154,VALID,0,VALID,23.4735,VALID,15,VALID,0.377734,
2008-05-24, 01:02:04,VALID,1003.44,VALID,0,VALID,96.2841,VALID,0,VALID,23.4541,VALID,34,VALID,0.372656,
2008-05-24, 01:03:04,VALID,1003.41,VALID,0,VALID,96.3528,VALID,0,VALID,23.4328,VALID,34,VALID,0.379297,
2008-05-24, 01:04:04,VALID,1003.42,VALID,0,VALID,96.3985,VALID,0.100563,VALID,23.4523,VALID,34,VALID,0.557422,
2008-05-24, 01:05:04,VALID,1003.37,VALID,0,VALID,96.5282,VALID,0,VALID,23.5302,VALID,34,VALID,0.360938,
2008-05-24, 01:06:04,VALID,1003.36,VALID,0,VALID,96.4977,VALID,0,VALID,23.5089,VALID,34,VALID,0.315625,
2008-05-24, 01:07:04,VALID,1003.34,VALID,0,VALID,96.3451,VALID,0.100563,VALID,23.4328,VALID,34,VALID,0.475781,
2008-05-24, 01:08:04,VALID,1003.34,VALID,0,VALID,96.2231,VALID,0.100563,VALID,23.3143,VALID,19,VALID,0.666406,
2008-05-24, 01:09:04,VALID,1003.34,VALID,0,VALID,96.2383,VALID,0,VALID,23.2559,VALID,13,VALID,0.619922,
2008-05-24, 01:10:04,VALID,1003.34,VALID,0,VALID,96.3985,VALID,0,VALID,23.2771,VALID,13,VALID,0.473047,
2008-05-24, 01:11:04,VALID,1003.34,VALID,0,VALID,96.5664,VALID,0,VALID,23.3337,VALID,12,VALID,0.314453,
2008-05-24, 01:12:04,VALID,1003.36,VALID,0,VALID,96.5511,VALID,0,VALID,23.3744,VALID,12,VALID,0.556641,
2008-05-24, 01:13:04,VALID,1003.37,VALID,0,VALID,96.6045,VALID,0.100563,VALID,23.4912,VALID,12,VALID,0.326172,
2008-05-24, 01:14:04,VALID,1003.37,VALID,0,VALID,96.6121,VALID,0,VALID,23.47,VALID,12,VALID,0.0882813,
2008-05-24, 01:15:04,VALID,1003.33,VALID,0,VALID,96.5969,VALID,0,VALID,23.47,VALID,12,VALID,0.1125,
2008-05-24, 01:16:04,VALID,1003.35,VALID,0,VALID,96.5664,VALID,0,VALID,23.47,VALID,12,VALID,0.166016,
2008-05-24, 01:17:04,VALID,1003.33,VALID,0,VALID,96.5664,VALID,0.100563,VALID,23.47,VALID,12,VALID,0.132031,
2008-05-24, 01:18:04,VALID,1003.32,VALID,0,VALID,96.5969,VALID,0.100563,VALID,23.5284,VALID,12,VALID,0.0191406,
2008-05-24, 01:19:04,VALID,1003.32,VALID,0,VALID,96.6198,VALID,0.100563,VALID,23.6452,VALID,18,VALID,0.227734,
2008-05-24, 01:20:04,VALID,1003.31,VALID,0,VALID,96.6655,VALID,0.100563,VALID,23.723,VALID,18,VALID,0.560547,
2008-05-24, 01:21:04,VALID,1003.31,VALID,0,VALID,96.6961,VALID,0.100563,VALID,23.8221,VALID,17,VALID,0.376172,
2008-05-24, 01:22:04,VALID,1003.3,VALID,0,VALID,96.6579,VALID,0.100563,VALID,23.8398,VALID,18,VALID,0.525391,
2008-05-24, 01:23:04,VALID,1003.29,VALID,0,VALID,96.6427,VALID,0.100563,VALID,23.8805,VALID,18,VALID,0.492578,
2008-05-24, 01:24:04,VALID,1003.31,VALID,0,VALID,96.6274,VALID,0,VALID,23.8805,VALID,21,VALID,0.746094,
2008-05-24, 01:25:04,VALID,1003.26,VALID,0,VALID,96.6274,VALID,0.100563,VALID,23.8593,VALID,28,VALID,0.275781,
2008-05-24, 01:26:04,VALID,1003.25,VALID,0,VALID,96.5969,VALID,0,VALID,23.8611,VALID,28,VALID,0.266406,
2008-05-24, 01:27:04,VALID,1003.25,VALID,0,VALID,96.5893,VALID,0.100563,VALID,23.8805,VALID,36,VALID,0.202344,
2008-05-24, 01:28:04,VALID,1003.22,VALID,0,VALID,96.5893,VALID,0,VALID,23.8593,VALID,36,VALID,0.671484,
2008-05-24, 01:29:04,VALID,1003.18,VALID,0,VALID,96.5969,VALID,0,VALID,23.8982,VALID,36,VALID,0.743359,
2008-05-24, 01:30:04,VALID,1003.2,VALID,0,VALID,96.5587,VALID,0,VALID,23.8787,VALID,36,VALID,0.377344,
2008-05-24, 01:31:04,VALID,1003.2,VALID,0,VALID,96.5511,VALID,0.100563,VALID,23.8982,VALID,17,VALID,0.853125,
2008-05-24, 01:32:04,VALID,1003.19,VALID,0,VALID,96.5511,VALID,0,VALID,23.9584,VALID,77,VALID,0.462109,
2008-05-24, 01:33:04,VALID,1003.19,VALID,0,VALID,96.5587,VALID,0.100563,VALID,23.9584,VALID,83,VALID,0.333203,
2008-05-24, 01:34:04,VALID,1003.18,VALID,0,VALID,96.5359,VALID,0.100563,VALID,23.9584,VALID,83,VALID,0.353516,
2008-05-24, 01:35:04,VALID,1003.16,VALID,0,VALID,96.5359,VALID,0,VALID,23.9761,VALID,48,VALID,0.346484,
2008-05-24, 01:36:04,VALID,1003.17,VALID,0,VALID,96.5816,VALID,0.100563,VALID,24.0947,VALID,49,VALID,0.620313,
2008-05-24, 01:37:04,VALID,1003.16,VALID,0,VALID,96.5359,VALID,0.100563,VALID,24.1142,VALID,62,VALID,0.0886719,
2008-05-24, 01:38:04,VALID,1003.2,VALID,0,VALID,96.5359,VALID,0,VALID,24.1142,VALID,62,VALID,0.1875,
2008-05-24, 01:39:04,VALID,1003.2,VALID,0,VALID,96.4977,VALID,0,VALID,24.0734,VALID,62,VALID,0.141016,
2008-05-24, 01:40:04,VALID,1003.2,VALID,0,VALID,96.4672,VALID,0,VALID,24.0557,VALID,62,VALID,0.494141,
2008-05-24, 01:41:04,VALID,1003.19,VALID,0,VALID,96.3985,VALID,0.100563,VALID,24.0168,VALID,51,VALID,0.510547,
2008-05-24, 01:42:04,VALID,1003.2,VALID,0,VALID,96.4443,VALID,0,VALID,24.0168,VALID,50,VALID,0.410156,
2008-05-24, 01:43:04,VALID,1003.16,VALID,0,VALID,96.4443,VALID,0,VALID,24.0363,VALID,50,VALID,0.234766,
2008-05-24, 01:44:04,VALID,1003.16,VALID,0,VALID,96.4825,VALID,0,VALID,24.0557,VALID,50,VALID,0.176172,
2008-05-24, 01:45:04,VALID,1003.18,VALID,0,VALID,96.4825,VALID,0,VALID,24.0345,VALID,17,VALID,0.957422,
2008-05-24, 01:46:04,VALID,1003.18,VALID,0,VALID,96.4367,VALID,0.100563,VALID,24.0557,VALID,23,VALID,0.334766,
2008-05-24, 01:47:04,VALID,1003.17,VALID,0,VALID,96.3756,VALID,0.100563,VALID,24.015,VALID,24,VALID,0.333594,
2008-05-24, 01:48:04,VALID,1003.16,VALID,0,VALID,96.3985,VALID,0,VALID,24.0168,VALID,13,VALID,0.447266,
2008-05-24, 01:49:04,VALID,1003.15,VALID,0,VALID,96.368,VALID,0,VALID,24.0363,VALID,30,VALID,0.283203,
2008-05-24, 01:50:04,VALID,1003.15,VALID,0,VALID,96.2994,VALID,0,VALID,23.9779,VALID,30,VALID,0.436719,
2008-05-24, 01:51:04,VALID,1003.17,VALID,0,VALID,96.2383,VALID,0,VALID,23.9177,VALID,30,VALID,0.238672,
2008-05-24, 01:52:04,VALID,1003.14,VALID,0,VALID,96.246,VALID,0,VALID,23.9,VALID,30,VALID,0.352734,
2008-05-24, 01:53:04,VALID,1003.18,VALID,0,VALID,96.3222,VALID,0,VALID,23.9,VALID,8,VALID,0.779297,
2008-05-24, 01:54:04,VALID,1003.16,VALID,0,VALID,96.3375,VALID,0.100563,VALID,23.9,VALID,22,VALID,0.922266,
2008-05-24, 01:55:04,VALID,1003.15,VALID,0,VALID,96.3528,VALID,0.100563,VALID,23.8982,VALID,34,VALID,0.260156,
2008-05-24, 01:56:04,VALID,1003.13,VALID,0,VALID,96.2765,VALID,0,VALID,23.8398,VALID,19,VALID,0.730859,
2008-05-24, 01:57:04,VALID,1003.14,VALID,0,VALID,96.2841,VALID,0,VALID,23.8416,VALID,30,VALID,0.319141,
2008-05-24, 01:58:04,VALID,1003.12,VALID,0,VALID,96.2612,VALID,0,VALID,23.8009,VALID,30,VALID,0.278125,
2008-05-24, 01:59:04,VALID,1003.1,VALID,0,VALID,96.2536,VALID,0,VALID,23.8027,VALID,30,VALID,0.275391,
2008-05-24, 02:00:04,VALID,1003.11,VALID,0,VALID,96.3222,VALID,0.100563,VALID,23.7832,VALID,30,VALID,0.298047,
2008-05-24, 02:01:04,VALID,1003.08,VALID,0,VALID,96.3375,VALID,0,VALID,23.8027,VALID,58,VALID,0.616406,
2008-05-24, 02:02:04,VALID,1003.07,VALID,0,VALID,96.4062,VALID,0,VALID,23.8203,VALID,24,VALID,0.630469,
2008-05-24, 02:03:04,VALID,1003.06,VALID,0,VALID,96.429,VALID,0.100563,VALID,23.8593,VALID,26,VALID,0.570703,
2008-05-24, 02:04:04,VALID,1003.06,VALID,0,VALID,96.4672,VALID,0,VALID,23.8787,VALID,27,VALID,0.152344,
2008-05-24, 02:05:04,VALID,1003.05,VALID,0,VALID,96.3528,VALID,0.100563,VALID,23.8398,VALID,73,VALID,0.447656,
2008-05-24, 02:06:04,VALID,1003.04,VALID,0,VALID,96.368,VALID,0,VALID,23.8787,VALID,18,VALID,0.669922,
2008-05-24, 02:07:04,VALID,1003.04,VALID,0,VALID,96.3451,VALID,0,VALID,23.8982,VALID,24,VALID,0.329297,
2008-05-24, 02:08:04,VALID,1003.01,VALID,0,VALID,96.3604,VALID,0,VALID,23.9389,VALID,24,VALID,0.204688,
2008-05-24, 02:09:04,VALID,1003.03,VALID,0,VALID,96.3146,VALID,0,VALID,23.9195,VALID,24,VALID,0.265234,
2008-05-24, 02:10:04,VALID,1003.05,VALID,0,VALID,96.2383,VALID,0,VALID,23.8805,VALID,24,VALID,0.442969,
2008-05-24, 02:11:04,VALID,1003.04,VALID,0,VALID,96.1849,VALID,0,VALID,23.8416,VALID,24,VALID,0.221875,
2008-05-24, 02:12:04,VALID,1003.05,VALID,0,VALID,96.2307,VALID,0,VALID,23.8416,VALID,24,VALID,0.753125,
2008-05-24, 02:13:04,VALID,1003.02,VALID,0,VALID,96.246,VALID,0,VALID,23.8416,VALID,27,VALID,0.526172,
2008-05-24, 02:14:04,VALID,1003.02,VALID,0,VALID,96.1315,VALID,0,VALID,23.7832,VALID,24,VALID,0.567578,
2008-05-24, 02:15:04,VALID,1003.03,VALID,0,VALID,96.1926,VALID,0,VALID,23.7443,VALID,29,VALID,0.911719,
2008-05-24, 02:16:04,VALID,1003.06,VALID,0,VALID,96.4138,VALID,0,VALID,23.8611,VALID,15,VALID,0.316406,
2008-05-24, 02:17:04,VALID,1003.08,VALID,0,VALID,96.4138,VALID,0,VALID,23.8982,VALID,27,VALID,0.353906,
2008-05-24, 02:18:04,VALID,1003.12,VALID,0,VALID,96.3756,VALID,0,VALID,23.9389,VALID,30,VALID,0.639844,
2008-05-24, 02:19:04,VALID,1003.09,VALID,0,VALID,96.3756,VALID,0,VALID,23.9779,VALID,18,VALID,0.957031,
2008-05-24, 02:20:04,VALID,1003.1,VALID,0,VALID,96.3146,VALID,0,VALID,23.9973,VALID,37,VALID,0.371094,
2008-05-24, 02:21:04,VALID,1003.13,VALID,0,VALID,96.2994,VALID,0.100563,VALID,24.0168,VALID,36,VALID,0.116016,
2008-05-24, 02:22:04,VALID,1003.14,VALID,0,VALID,96.2078,VALID,0,VALID,23.9973,VALID,6,VALID,0.551953,
2008-05-24, 02:23:04,VALID,1003.18,VALID,0,VALID,96.162,VALID,0,VALID,23.9992,VALID,63,VALID,0.551172,
2008-05-24, 02:24:04,VALID,1003.16,VALID,0,VALID,96.2383,VALID,0,VALID,24.0168,VALID,27,VALID,0.815234,
2008-05-24, 02:25:04,VALID,1003.2,VALID,0,VALID,96.1468,VALID,0,VALID,24.0381,VALID,41,VALID,0.339453,
2008-05-24, 02:26:04,VALID,1003.22,VALID,0,VALID,96.04,VALID,0,VALID,23.9779,VALID,29,VALID,0.399609,
2008-05-24, 02:27:04,VALID,1003.22,VALID,0,VALID,96.0171,VALID,0.100563,VALID,23.9584,VALID,60,VALID,0.446875,
2008-05-24, 02:28:04,VALID,1003.24,VALID,0,VALID,96.0476,VALID,0,VALID,23.9584,VALID,49,VALID,0.620313,
2008-05-24, 02:29:04,VALID,1003.25,VALID,0,VALID,96.04,VALID,0,VALID,23.9584,VALID,29,VALID,0.653516,
2008-05-24, 02:30:04,VALID,1003.24,VALID,0,VALID,96.0705,VALID,0,VALID,23.9761,VALID,29,VALID,0.597656,
2008-05-24, 02:31:04,VALID,1003.21,VALID,0,VALID,96.0476,VALID,0,VALID,23.9779,VALID,17,VALID,0.7875,
2008-05-24, 02:32:04,VALID,1003.2,VALID,0,VALID,96.0705,VALID,0,VALID,24.0168,VALID,60,VALID,0.888281,
2008-05-24, 02:33:04,VALID,1003.18,VALID,0,VALID,96.1315,VALID,0,VALID,24.1142,VALID,74,VALID,0.227734,
2008-05-24, 02:34:04,VALID,1003.16,VALID,0,VALID,96.04,VALID,0,VALID,24.0929,VALID,67,VALID,0.352734,
2008-05-24, 02:35:04,VALID,1003.16,VALID,0,VALID,95.9866,VALID,0,VALID,24.1142,VALID,43,VALID,0.474609,
2008-05-24, 02:36:04,VALID,1003.17,VALID,0,VALID,95.9408,VALID,0,VALID,24.0929,VALID,51,VALID,0.440234,
2008-05-24, 02:37:04,VALID,1003.17,VALID,0,VALID,95.8645,VALID,0,VALID,24.1142,VALID,51,VALID,0.31875,
2008-05-24, 02:38:04,VALID,1003.17,VALID,0,VALID,95.773,VALID,0,VALID,24.0557,VALID,51,VALID,0.129688,
2008-05-24, 02:39:04,VALID,1003.18,VALID,0,VALID,95.773,VALID,0,VALID,24.0363,VALID,69,VALID,0.585547,
2008-05-24, 02:40:04,VALID,1003.2,VALID,0,VALID,95.834,VALID,0.100563,VALID,24.015,VALID,72,VALID,0.433594,
2008-05-24, 02:41:04,VALID,1003.2,VALID,0,VALID,95.895,VALID,0,VALID,24.0752,VALID,59,VALID,0.44375,
2008-05-24, 02:42:04,VALID,1003.2,VALID,0,VALID,95.8264,VALID,0,VALID,24.0557,VALID,86,VALID,0.567969,
2008-05-24, 02:43:04,VALID,1003.18,VALID,0,VALID,95.8493,VALID,0,VALID,24.0947,VALID,104,VALID,0.735156,
2008-05-24, 02:44:04,VALID,1003.16,VALID,0,VALID,95.834,VALID,0,VALID,24.1549,VALID,48,VALID,0.45,
2008-05-24, 02:45:04,VALID,1003.18,VALID,0,VALID,95.773,VALID,0,VALID,24.1123,VALID,71,VALID,0.493359,
2008-05-24, 02:46:04,VALID,1003.15,VALID,0,VALID,95.7272,VALID,0,VALID,24.1336,VALID,67,VALID,0.223047,
2008-05-24, 02:47:04,VALID,1003.16,VALID,0,VALID,95.7348,VALID,0,VALID,24.1336,VALID,21,VALID,0.505469,
2008-05-24, 02:48:04,VALID,1003.14,VALID,0,VALID,95.6662,VALID,0,VALID,24.1142,VALID,29,VALID,0.447266,
2008-05-24, 02:49:04,VALID,1003.13,VALID,0,VALID,95.6204,VALID,0,VALID,24.0752,VALID,71,VALID,0.725,
2008-05-24, 02:50:04,VALID,1003.13,VALID,0,VALID,95.7119,VALID,0,VALID,24.0947,VALID,27,VALID,0.657422,
2008-05-24, 02:51:04,VALID,1003.12,VALID,0,VALID,95.6814,VALID,0,VALID,24.0947,VALID,65,VALID,0.317969,
2008-05-24, 02:52:04,VALID,1003.1,VALID,0,VALID,95.7959,VALID,0,VALID,24.1726,VALID,98,VALID,0.553516,
2008-05-24, 02:53:04,VALID,1003.1,VALID,0,VALID,95.7653,VALID,0,VALID,24.231,VALID,39,VALID,0.494141,
2008-05-24, 02:54:04,VALID,1003.08,VALID,0,VALID,95.6738,VALID,0,VALID,24.2504,VALID,41,VALID,0.657422,
2008-05-24, 02:55:04,VALID,1003.09,VALID,0,VALID,95.5975,VALID,0,VALID,24.2699,VALID,68,VALID,0.492969,
2008-05-24, 02:56:04,VALID,1003.12,VALID,0,VALID,95.5975,VALID,0,VALID,24.3283,VALID,88,VALID,1.11094,
2008-05-24, 02:57:04,VALID,1003.1,VALID,0,VALID,95.4907,VALID,0,VALID,24.3867,VALID,84,VALID,0.635938,
2008-05-24, 02:58:04,VALID,1003.09,VALID,0,VALID,95.3763,VALID,0,VALID,24.3849,VALID,64,VALID,0.898438,
2008-05-24, 02:59:04,VALID,1003.09,VALID,0,VALID,95.3152,VALID,0,VALID,24.4043,VALID,73,VALID,0.869922,
2008-05-24, 03:00:04,VALID,1003.08,VALID,0,VALID,95.2084,VALID,0,VALID,24.4257,VALID,101,VALID,0.721484,
2008-05-24, 03:01:04,VALID,1003.09,VALID,0,VALID,95.1932,VALID,0,VALID,24.4646,VALID,28,VALID,0.403125,
2008-05-24, 03:02:04,VALID,1003.08,VALID,0,VALID,95.1245,VALID,0,VALID,24.4841,VALID,76,VALID,0.715625,
2008-05-24, 03:03:04,VALID,1003.1,VALID,0,VALID,95.0253,VALID,0.100563,VALID,24.523,VALID,60,VALID,0.785937,
2008-05-24, 03:04:04,VALID,1003.06,VALID,0,VALID,94.9033,VALID,0.100563,VALID,24.5017,VALID,31,VALID,0.488672,
2008-05-24, 03:05:04,VALID,1003.09,VALID,0,VALID,94.9109,VALID,0,VALID,24.523,VALID,75,VALID,0.653906,
2008-05-24, 03:06:04,VALID,1003.07,VALID,0,VALID,94.888,VALID,0,VALID,24.523,VALID,53,VALID,0.548047,
2008-05-24, 03:07:04,VALID,1003.08,VALID,0,VALID,94.8194,VALID,0,VALID,24.523,VALID,82,VALID,0.516016,
2008-05-24, 03:08:04,VALID,1003.1,VALID,0,VALID,94.8194,VALID,0,VALID,24.5425,VALID,91,VALID,0.604297,
2008-05-24, 03:09:04,VALID,1003.1,VALID,0,VALID,94.8575,VALID,0,VALID,24.5406,VALID,39,VALID,0.948438,
2008-05-24, 03:10:04,VALID,1003.1,VALID,0,VALID,94.7736,VALID,0,VALID,24.5814,VALID,69,VALID,0.819531,
2008-05-24, 03:11:04,VALID,1003.1,VALID,0,VALID,94.6973,VALID,0,VALID,24.5814,VALID,42,VALID,0.712891,
2008-05-24, 03:12:04,VALID,1003.11,VALID,0,VALID,94.6439,VALID,0,VALID,24.5814,VALID,66,VALID,0.575391,
2008-05-24, 03:13:04,VALID,1003.11,VALID,0,VALID,94.6515,VALID,0,VALID,24.6612,VALID,72,VALID,0.723828,
2008-05-24, 03:14:04,VALID,1003.09,VALID,0,VALID,94.5447,VALID,0,VALID,24.6185,VALID,29,VALID,0.486328,
2008-05-24, 03:15:04,VALID,1003.08,VALID,0,VALID,94.4837,VALID,0,VALID,24.5814,VALID,29,VALID,0.0367187,
2008-05-24, 03:16:04,VALID,1003.11,VALID,0,VALID,94.5752,VALID,0,VALID,24.5814,VALID,52,VALID,0.419922,
2008-05-24, 03:17:04,VALID,1003.08,VALID,0,VALID,94.5905,VALID,0,VALID,24.5814,VALID,65,VALID,0.730078,
2008-05-24, 03:18:04,VALID,1003.09,VALID,0,VALID,94.5371,VALID,0,VALID,24.5601,VALID,90,VALID,0.658203,
2008-05-24, 03:19:04,VALID,1003.06,VALID,0,VALID,94.5676,VALID,0,VALID,24.6204,VALID,82,VALID,1.07734,
2008-05-24, 03:20:04,VALID,1003.07,VALID,0,VALID,94.4608,VALID,0,VALID,24.6788,VALID,79,VALID,1.29062,
2008-05-24, 03:21:04,VALID,1003.09,VALID,0,VALID,94.3158,VALID,0,VALID,24.6983,VALID,88,VALID,0.850781,
2008-05-24, 03:22:04,VALID,1003.09,VALID,0,VALID,94.209,VALID,0,VALID,24.6983,VALID,101,VALID,0.749609,
2008-05-24, 03:23:04,VALID,1003.08,VALID,0,VALID,94.087,VALID,0,VALID,24.7177,VALID,91,VALID,0.695703,
2008-05-24, 03:24:04,VALID,1003.09,VALID,0,VALID,93.9497,VALID,0,VALID,24.6983,VALID,107,VALID,0.853906,
2008-05-24, 03:25:04,VALID,1003.08,VALID,0,VALID,93.9268,VALID,0,VALID,24.6983,VALID,89,VALID,0.975391,
2008-05-24, 03:26:04,VALID,1003.08,VALID,0,VALID,93.8734,VALID,0,VALID,24.6788,VALID,90,VALID,0.952734,
2008-05-24, 03:27:04,VALID,1003.06,VALID,0,VALID,93.8581,VALID,0,VALID,24.6788,VALID,77,VALID,0.719922,
2008-05-24, 03:28:04,VALID,1003.04,VALID,0,VALID,93.8505,VALID,0,VALID,24.6398,VALID,89,VALID,0.792578,
2008-05-24, 03:29:04,VALID,1003.01,VALID,0,VALID,93.8657,VALID,0,VALID,24.6204,VALID,81,VALID,0.719531,
2008-05-24, 03:30:04,VALID,1003.02,VALID,0,VALID,93.82,VALID,0,VALID,24.5796,VALID,86,VALID,0.342578,
2008-05-24, 03:31:04,VALID,1003.02,VALID,0,VALID,93.8734,VALID,0,VALID,24.5814,VALID,95,VALID,0.833984,
2008-05-24, 03:32:04,VALID,1002.99,VALID,0,VALID,93.8734,VALID,0,VALID,24.5601,VALID,75,VALID,0.521875,
2008-05-24, 03:33:04,VALID,1002.99,VALID,0,VALID,93.9573,VALID,0,VALID,24.523,VALID,78,VALID,0.890625,
2008-05-24, 03:34:04,VALID,1002.95,VALID,0,VALID,93.9802,VALID,0,VALID,24.5425,VALID,73,VALID,1.17539,
2008-05-24, 03:35:04,VALID,1002.93,VALID,0,VALID,93.9344,VALID,0,VALID,24.5425,VALID,79,VALID,0.7375,
2008-05-24, 03:36:04,VALID,1002.91,VALID,0,VALID,93.942,VALID,0,VALID,24.562,VALID,83,VALID,1.07813,
2008-05-24, 03:37:04,VALID,1002.92,VALID,0,VALID,93.8734,VALID,0,VALID,24.5425,VALID,68,VALID,0.828125,
2008-05-24, 03:38:04,VALID,1002.88,VALID,0,VALID,93.8657,VALID,0,VALID,24.5425,VALID,80,VALID,0.815625,
2008-05-24, 03:39:04,VALID,1002.88,VALID,0,VALID,93.8505,VALID,0,VALID,24.5833,VALID,82,VALID,0.586719,
2008-05-24, 03:40:04,VALID,1002.88,VALID,0,VALID,93.7895,VALID,0,VALID,24.5814,VALID,87,VALID,0.686328,
2008-05-24, 03:41:04,VALID,1002.88,VALID,0,VALID,93.7437,VALID,0,VALID,24.5425,VALID,70,VALID,1.33711,
2008-05-24, 03:42:04,VALID,1002.92,VALID,0,VALID,93.7818,VALID,0,VALID,24.5425,VALID,88,VALID,1.08594,
2008-05-24, 03:43:04,VALID,1002.93,VALID,0,VALID,93.7666,VALID,0,VALID,24.562,VALID,65,VALID,0.424609,
2008-05-24, 03:44:04,VALID,1002.93,VALID,0,VALID,93.7361,VALID,0,VALID,24.562,VALID,68,VALID,0.596875,